Location: Pl�tzky
(52.0521°N, 11.8020°E)
Time: 16:45:13
(UTC+00:00)

Envisat - Visible Passes

Search period start: 27 January 2021 00:00
Search period end: 06 February 2021 00:00
Orbit: 764 x 766 km, 98.1° (Epoch: 26 January)

Date Brightness Start Highest point End Pass type
(mag) Time Alt. Az. Time Alt. Az. Time Alt. Az.
27 Jan 6.2 03:23:23 10° ENE 03:24:43 11° E 03:26:01 10° E visible
27 Jan 3.4 04:59:39 10° NNE 05:04:44 67° ESE 05:09:47 10° S visible
27 Jan 3.9 16:19:56 10° S 16:24:55 56° W 16:29:56 10° NNW visible
28 Jan 4.7 04:23:06 10° NNE 04:27:43 34° E 04:32:20 10° SSE visible
28 Jan 3.4 06:02:04 10° N 06:06:50 42° WNW 06:11:36 10° SW visible
28 Jan 5.9 17:24:11 10° SW 17:27:40 18° W 17:31:11 10° NW visible
29 Jan 5.7 03:47:04 10° NE 03:50:31 18° E 03:53:57 10° SE visible
29 Jan 2.9 05:25:03 10° NNE 05:30:10 79° WNW 05:35:14 10° SSW visible
29 Jan 4.9 16:45:50 10° SSW 16:50:28 35° W 16:55:08 10° NNW visible
30 Jan 3.8 04:48:16 10° NNE 04:53:17 54° E 04:58:16 10° S visible
30 Jan 6.4 17:51:56 10° W 17:53:28 11° W 17:55:01 10° WNW visible
31 Jan 5.0 04:11:50 10° NNE 04:16:13 28° E 04:20:34 10° SSE visible
31 Jan 3.2 05:50:34 10° N 05:55:29 50° WNW 06:00:23 10° SW visible
31 Jan 5.7 17:12:11 10° SW 17:16:07 22° W 17:20:05 10° NW visible
01 Feb 6.0 03:36:08 10° NE 03:38:56 15° E 03:41:45 10° ESE visible
01 Feb 3.0 05:13:37 10° NNE 05:18:45 86° ESE 05:23:50 10° SSW visible
01 Feb 4.5 16:34:10 10° S 16:38:58 43° W 16:43:50 10° NNW visible
02 Feb 4.2 04:36:55 10° NNE 04:41:49 45° E 04:46:40 10° S visible
02 Feb 6.2 17:39:14 10° WSW 17:41:52 14° W 17:44:32 10° NW visible
03 Feb 5.3 04:00:38 10° NE 04:04:41 23° E 04:08:43 10° SE visible
03 Feb 3.0 05:39:05 10° N 05:44:07 61° WNW 05:49:06 10° SSW visible
03 Feb 5.4 17:00:18 10° SSW 17:04:35 27° W 17:08:55 10° NW visible
04 Feb 6.2 03:25:30 10° ENE 03:27:20 12° E 03:29:12 10° ESE visible
04 Feb 3.3 05:02:12 10° NNE 05:07:19 72° ESE 05:12:23 10° S visible
05 Feb 4.6 04:25:37 10° NNE 04:30:19 37° E 04:35:00 10° SSE visible
05 Feb 3.5 06:04:41 10° N 06:09:24 39° WNW 06:14:05 10° SW visible
05 Feb 6.0 17:26:59 10° SW 17:30:18 17° W 17:33:37 10° NW visible
